Find Yaogan Weixing 11

NORAD ID: 37165 Int'l Des: 2010-047 Owner: ZZB Country: CN Constellation: yaogan operational
LEOCIRCULARRETROGRADE

当前视图

正在加载3D地球...

About Yaogan Weixing 11

Yaogan Weixing 11 (NORAD 37165) is a yaogan constellation satellite launched Sep 22, 2010 by ZZB of CN. It operates in LEO, CIRCULAR, RETROGRADE orbit with a mass of 800.00 kg.

关于 Yaogan Weixing 11

正在加载描述...

即将过境

Passes for default location (London). Set your location on the main map for personalized predictions.

高度历史

Loading altitude history...

两行轨道根数

1 37165U 10047A 26195.18989914 .00000366 00000-0 53069-4 0 9998
2 37165 98.3821 62.5624 0035209 153.4831 206.8192 14.82116741852091
Epoch: Jul 14, 2026 • Age: 5 hours

当前状态

高度 605.1 km
远地点 / 近地点 N/A
速度 7.57 km/s
星下点 42.23°N, 167.62°E
发射日期 Sep 22, 2010
运行时间 15.8 years
类型 military

技术详情

分类 Payload
质量 800.00 kg
干质量 800.00 kg
总质量 800.00 kg
长度 2.00 m
直径 1.50 m
跨度 4.00 m
形状 Box + 2 Pan
制造商 DFHZ
平台类型 CAST-2000
阶段状态 In Orbit
所有者/国家 ZZB/CN

Most Searched